Flag for Germany Weather past 2 weeks in Wolfsburg, Lower Saxony, Germany

Now
66 °F

Partly sunny.


Feels Like: 66 °F
Forecast: 54 / 64 °F
Wind: 18 mph from West

Location: Braunschweig

Current Time: Jul 28, 2015 at 6:14:32 PM

Latest Report: Jul 28, 2015 at 5:20 PM


Visibility: N/A

Pressure: 29.65 "Hg

Humidity: 60%

Dew point: 52 °F

Location of WolfsburgLocation

Historic Weather in Wolfsburg — Graph

°F

Wolfsburg temperature yesterday

Maximum temperature yesterday: 66 °F (at 12:50 PM)
Minimum temperature yesterday: 55 °F (at 1:20 AM)
Average temperature yesterday: 61 °F

Past Weeks' High & Low Weather Summary

 TemperatureHumidityPressure
High91 °F (Jul 17, 4:50 PM)100% (Jul 13, 5:20 PM)30.12 "Hg (Jul 13, 5:20 PM)
Low55 °F (Jul 24, 6:50 AM)24% (Jul 17, 6:50 PM)29.53 "Hg (Jul 25, 1:50 PM)
Average69 °F70%29.90 "Hg
* Reported Jul 13 4:20 PM — Jul 28 4:50 PM, Wolfsburg, Weather by CustomWeather, © 2015

Note: Actual official high and low records may vary slightly from our data, if they occured in-between our weather recording intervals... More about our weather records

Advertising

Wolfsburg weather history for previous 24 hours

 ConditionsComfort  
Time TempWeatherWind HumidityBarometerVisibility
4:50 PM
Tue, Jul 28
66 °FBroken clouds.16 mph60%29.65 "HgN/A
4:20 PM64 °FMore clouds than sun.18 mph64%29.65 "HgN/A
3:50 PM64 °FPartly sunny.18 mph64%29.65 "HgN/A
3:20 PM63 °FMostly cloudy.15 mph73%29.65 "HgN/A
2:50 PM64 °FPartly sunny.18 mph64%29.65 "HgN/A
2:20 PM66 °FBroken clouds.15 mph60%29.65 "HgN/A
1:50 PM63 °FBroken clouds.20 mph68%29.65 "HgN/A
1:20 PM64 °FBroken clouds.16 mph60%29.65 "HgN/A
12:50 PM64 °FPartly sunny.15 mph64%29.65 "HgN/A
12:20 PM64 °FPartly sunny.20 mph64%29.65 "HgN/A
11:20 AM63 °FMostly cloudy.18 mph64%29.62 "HgN/A
10:50 AM63 °FMostly cloudy.18 mph68%29.62 "HgN/A
10:20 AM61 °FPartly sunny.16 mph72%29.62 "HgN/A
9:50 AM59 °FPartly sunny.16 mph72%29.62 "HgN/A
9:20 AM59 °FPartly sunny.16 mph77%29.62 "HgN/A
8:50 AM59 °FPartly sunny.15 mph72%29.59 "HgN/A
8:20 AM59 °FLight rain. Partly sunny.17 mph72%29.59 "HgN/A
7:50 AM59 °FPartly sunny.15 mph72%29.59 "HgN/A
7:20 AM57 °FBroken clouds.13 mph77%29.59 "HgN/A
6:50 AM57 °FPassing clouds.12 mph77%29.59 "HgN/A
9:50 PM
Mon, Jul 27
61 °FSunny.10 mph94%29.59 "Hg10 mi
9:20 PM63 °FSunny.13 mph88%29.56 "Hg10 mi
8:20 PM63 °FSunny.12 mph88%29.56 "Hg10 mi
7:50 PM63 °FPartly sunny.13 mph94%29.56 "HgN/A
7:20 PM63 °FCloudy.14 mph88%29.56 "HgN/A
6:50 PM64 °FMostly cloudy.18 mph78%29.56 "HgN/A
6:20 PM64 °FBroken clouds.16 mph83%29.56 "HgN/A
Weather by CustomWeather, © 2015

See weather overviewHow to use our weather pages